2023/01/25 00:00:00,28.6,-6.5
2023/01/25 00:10:00,29.1,-6.2
2023/01/25 00:20:00,29.0,-6.6
2023/01/25 00:30:00,29.1,-6.7
2023/01/25 00:40:00,29.1,-7.0
2023/01/25 00:50:00,29.0,-7.1
2023/01/25 01:00:00,29.2,-7.1
2023/01/25 01:10:00,29.1,-6.7
2023/01/25 01:20:00,29.1,-6.9
2023/01/25 01:30:00,29.0,-6.8
2023/01/25 01:40:00,28.9,-7.0
2023/01/25 01:50:00,28.9,-6.5
2023/01/25 02:00:00,29.2,-6.5
2023/01/25 02:10:00,29.1,-6.7
2023/01/25 02:20:00,29.4,-6.3
2023/01/25 02:30:00,29.0,-6.4
2023/01/25 02:40:00,29.0,-6.7
2023/01/25 02:50:00,28.8,-6.7
2023/01/25 03:00:00,28.7,-6.3
2023/01/25 03:10:00,28.6,-6.4
2023/01/25 03:20:00,29.0,-6.3
2023/01/25 03:30:00,29.0,-6.2
2023/01/25 03:40:00,28.9,-6.2
2023/01/25 03:50:00,28.8,-6.1
2023/01/25 04:00:00,28.7,-6.2
2023/01/25 04:10:00,28.5,-6.3
2023/01/25 04:20:00,28.5,-6.2
2023/01/25 04:30:00,28.4,-6.3
2023/01/25 04:40:00,28.7,-6.2
2023/01/25 04:50:00,28.8,-6.3
2023/01/25 05:00:00,28.8,-6.0
2023/01/25 05:10:00,28.7,-6.1
2023/01/25 05:20:00,28.5,-5.9
2023/01/25 05:30:00,28.5,-5.8
2023/01/25 05:40:00,28.5,-6.2
2023/01/25 05:50:00,28.4,-6.0
2023/01/25 06:00:00,28.2,-6.1
2023/01/25 06:10:00,28.1,-6.0
2023/01/25 06:20:00,28.1,-6.1
2023/01/25 06:30:00,28.0,-6.5
2023/01/25 06:40:00,27.8,-6.2
2023/01/25 06:50:00,28.2,-6.0
2023/01/25 07:00:00,28.8,-6.1
2023/01/25 07:10:00,28.9,-6.0
2023/01/25 07:20:00,29.0,-6.2
2023/01/25 07:30:00,29.3,-6.2
2023/01/25 07:40:00,29.3,-6.0
2023/01/25 07:50:00,29.7,-6.0
2023/01/25 08:00:00,30.0,-5.6
2023/01/25 08:10:00,30.1,-5.4
2023/01/25 08:20:00,30.3,-5.6
2023/01/25 08:30:00,30.3,-4.8
2023/01/25 08:40:00,30.3,-5.6
2023/01/25 08:50:00,30.9,-5.5
2023/01/25 09:00:00,31.0,-5.0
2023/01/25 09:10:00,30.9,-1.7
2023/01/25 09:20:00,30.8,-3.5
2023/01/25 09:30:00,30.3,-3.8
2023/01/25 09:40:00,30.5, 9.6
2023/01/25 09:50:00,30.4,-2.9
2023/01/25 10:00:00,30.8,-2.4
2023/01/25 10:10:00,30.9, 0.4
2023/01/25 10:20:00,30.6,-3.7
2023/01/25 10:30:00,30.7,-4.0
2023/01/25 10:40:00,30.6,-3.7
2023/01/25 10:50:00,30.6,-3.3
2023/01/25 11:00:00,30.6,-2.2
2023/01/25 11:10:00,30.5, 0.0
2023/01/25 11:20:00,30.5, 0.3
2023/01/25 11:30:00,30.2,-2.5
2023/01/25 11:40:00,30.3,-0.8
2023/01/25 11:50:00,30.3,-3.2
2023/01/25 12:00:00,30.4,-3.7
2023/01/25 12:10:00,30.5,-3.2
2023/01/25 12:20:00,30.7,-2.8
2023/01/25 12:30:00,31.1,-1.7
2023/01/25 12:40:00,31.0,-1.9
2023/01/25 12:50:00,30.7,-2.4
2023/01/25 13:00:00,30.8,-3.3
2023/01/25 13:10:00,31.3,-3.5
2023/01/25 13:20:00,31.6,-3.4
2023/01/25 13:30:00,32.5,-3.9
2023/01/25 13:40:00,33.1,-3.6
2023/01/25 13:50:00,33.7,-3.9
2023/01/25 14:00:00,34.2, 0.4
2023/01/25 14:10:00,34.0,-2.7
2023/01/25 14:20:00,34.5,-3.6
2023/01/25 14:30:00,35.6,-1.8
2023/01/25 14:40:00,35.5,-3.1
2023/01/25 14:50:00,35.5,-3.5
2023/01/25 15:00:00,35.8,-1.1
2023/01/25 15:10:00,35.9,-0.1
2023/01/25 15:20:00,35.5,-1.2
2023/01/25 15:30:00,35.3,-1.9
2023/01/25 15:40:00,35.2,-2.8
2023/01/25 15:50:00,35.3,-3.5
2023/01/25 16:00:00,35.8,-3.4
2023/01/25 16:10:00,36.0,-1.7
2023/01/25 16:20:00,36.5,-2.9
2023/01/25 16:30:00,36.6,-3.3
2023/01/25 16:40:00,36.6,-3.5
2023/01/25 16:50:00,37.0,-3.4
2023/01/25 17:00:00,37.1,-3.6
2023/01/25 17:10:00,37.3,-3.9
2023/01/25 17:20:00,37.1,-4.4
2023/01/25 17:30:00,37.1,-4.0
2023/01/25 17:40:00,37.0,-4.3
2023/01/25 17:50:00,37.1,-4.0
2023/01/25 18:00:00,37.9,-4.3
2023/01/25 18:10:00,38.0,-4.4
2023/01/25 18:20:00,38.0,-4.3
2023/01/25 18:30:00,38.0,-4.4
2023/01/25 18:40:00,38.0,-4.5
2023/01/25 18:50:00,38.0,-4.3
2023/01/25 19:00:00,39.0,-4.4
2023/01/25 19:10:00,40.9,-4.5
2023/01/25 19:20:00,41.5,-4.6
2023/01/25 19:30:00,41.9,-4.6
2023/01/25 19:40:00,42.5,-4.4
2023/01/25 19:50:00,43.1,-4.6
2023/01/25 20:00:00,48.1,-4.2
2023/01/25 20:10:00,50.9,-4.5
2023/01/25 20:20:00,51.0,-4.4
2023/01/25 20:30:00,51.0,-4.4
2023/01/25 20:40:00,51.0,-4.5
2023/01/25 20:50:00,51.9,-4.6
2023/01/25 21:00:00,51.9,-4.3
2023/01/25 21:10:00,52.1,-4.6
2023/01/25 21:20:00,52.0,-4.7
2023/01/25 21:30:00,52.4,-4.6
2023/01/25 21:40:00,52.8,-4.5
2023/01/25 21:50:00,53.2,-4.5
2023/01/25 22:00:00,53.4,-4.7
2023/01/25 22:10:00,53.8,-4.7
2023/01/25 22:20:00,53.9,-4.7
2023/01/25 22:30:00,53.8,-5.5
2023/01/25 22:40:00,53.6,-5.0
2023/01/25 22:50:00,53.5,-5.2
2023/01/25 23:00:00,53.3,-5.2
2023/01/25 23:10:00,53.2,-5.7
2023/01/25 23:20:00,53.2,-6.1
2023/01/25 23:30:00,53.1,-6.6
2023/01/25 23:40:00,53.1,-6.9
2023/01/25 23:50:00,53.1,-6.6
